2025-292C (66995 NORAD) Tracking and Keplerian Element Data

This shows tracking and keplerian element data for the satellite.

Feedback or suggestion? Click here.




ElementValue
Catalog66995
Name2025-292C
Epoch Orbit151
Epoch Day354.18892512
Epoch Year2025
RAAN66.669
Inclination97.6523
Eccentricity0.0014046
Argument of Perigee245.4865
Mean Anonmoly114.4897
Mean Motion15.04613931
Decay Rate3.294E-05
L11 66995U 25292C 25354.18892512 .00003294 00000+0 23851-3 0 9999
L22 66995 97.6523 66.6690 0014046 245.4865 114.4897 15.04613931 1515



Live tracking and technical data element details for 2025-292C (NORAD 66995). 2025-292C can be tracked NOW for your location showing map with azimuth and elevation plus other details from your city location.







IsCatalogInMostPopularTable: catalog: 66995, numindb: 14
Update: records affected: 1



GetName: 66995 2025-292C

Hit Count: updated at: Fri, 16 Jan 2026 09:39:20 GMT